[[{"header":{"parameterUnit":"m.s-1","parameterCategory":1,"la1":30.2991,"la2":30.254,"lo1":-89.0895,"lo2":-89.0444,"dy":0.0017,"dx":0.0017,"nx":28,"ny":28,"refTime":"2025-12-04T03:00:00:Z","depth":0,"parameterNumber":2,"parameterNumberName":"U-component_of_WINDS"},"data":[0,0,0,0,0,0,0,0,0,0,0,0,0,0,0,0,0,0,0,0,0,0,0,0,0,0,0,0,0,0,0,0,0,0,0,0,0,0,0,0,0,0,0,0,0,0,0,0,0,0,0,0,0,0,0,0,0,0,-4.2771,-4.2772,0,-4.2852,-4.2853,-4.2854,-4.2741,-4.2737,-4.2733,-4.2729,-4.2812,-4.2818,-4.2824,0,0,0,0,0,0,0,0,0,0,0,0,0,-4.2517,-4.2523,-4.2771,-4.2772,-4.2773,-4.2852,-4.2853,-4.2854,-4.2742,-4.2737,-4.2732,-4.2727,-4.281,-4.2817,-4.2825,0,0,0,0,0,0,0,0,0,0,0,0,0,-4.2616,-4.2524,-4.2771,-4.2726,-4.2723,-4.2851,-4.2853,-4.2854,-4.2743,-4.2737,-4.2731,-4.2725,-4.2808,-4.2817,-4.2826,-4.3001,0,0,-4.2853,-4.2857,0,0,0,0,0,0,0,0,-4.261,-4.2625,-4.2732,-4.273,-4.2726,-4.278,-4.2794,-4.2903,-4.2744,-4.2735,-4.2729,-4.2722,-4.2807,-4.2815,-4.2844,-4.3005,-4.3008,-4.2854,-4.2859,-4.2863,-4.2865,0,0,0,0,0,0,0,-4.2604,-4.2621,-4.2803,-4.2733,-4.273,-4.2702,-4.2709,-4.2814,-4.2804,-4.2736,-4.2728,-4.2739,-4.2804,-4.2835,-4.2845,-4.301,-4.2853,-4.2861,-4.2867,-4.287,-4.3317,-4.3323,0,0,0,0,0,0,-4.2602,-4.2616,-4.28,-4.2805,-4.2652,-4.2711,-4.272,-4.2769,-4.2802,-4.2801,-4.2744,-4.2733,-4.2823,-4.2834,-4.2847,-4.3054,-4.2863,-4.2871,-4.2876,-4.331,-4.3318,-4.3325,0,0,0,0,0,0,-4.2597,-4.262,-4.2797,-4.2709,-4.2729,-4.2722,-4.2778,-4.2774,-4.2805,-4.2808,-4.2806,-4.2778,-4.2819,-4.2835,-4.2963,-4.3055,-4.2875,-4.2883,-4.3303,-4.3313,-4.3322,-4.3469,0,0,0,0,0,0,-4.2591,-4.2619,-4.2686,-4.2711,-4.2734,-4.2912,-4.2784,-4.278,-4.2821,-4.2808,-4.284,-4.2839,-4.2815,-4.295,-4.2972,-4.3064,-4.289,-4.3294,-4.3307,-4.3319,-4.3456,-4.3482,-4.3505,0,0,0,0,0,-4.2582,-4.2725,-4.269,-4.2713,-4.2818,-4.2918,-4.2931,-4.29,-4.2829,-4.2895,-4.2897,-4.2838,-4.3041,-4.2964,-4.2988,-4.3084,-4.3288,-4.3303,-4.3318,-4.3445,-4.3477,-4.3505,0,0,0,0,0,0,-4.2711,-4.2727,-4.2689,-4.2844,-4.288,-4.2899,-4.2982,-4.2936,-4.2994,-4.2979,-4.2938,-4.2947,-4.3084,-4.3096,-4.3011,-4.3254,-4.3153,-4.3173,-4.3241,-4.3272,-4.3297,-4.3291,-4.2898,0,0,0,0,0,-4.2757,-4.2838,-4.2847,-4.2983,-4.3003,-4.299,-4.3032,-4.3005,-4.3041,-4.3056,-4.3068,-4.3105,-4.3177,-4.3225,-4.3291,-4.3457,-4.3461,-4.3534,-4.3559,-4.3579,-4.3597,-4.3684,-4.3716,-4.3373,-4.3373,-4.3373,0,0,-4.2854,-4.2873,-4.2926,-4.3009,-4.3034,-4.3118,-4.3004,-4.3097,-4.3158,-4.3071,-4.3192,-4.3202,-4.3241,-4.3388,-4.3453,-4.3403,-4.3692,-4.3598,-4.3614,-4.3621,-4.3702,-4.3735,-4.3763,-4.3383,-4.3381,-4.338,0,0,-4.3073,-4.3096,-4.3211,-4.3238,-4.3277,-4.3267,-4.3295,-4.332,-4.3323,-4.3444,-4.338,-4.3451,-4.3577,-4.3606,-4.3638,-4.3866,-4.3814,-4.3889,-4.4019,-4.4104,-4.4131,-4.4154,-4.4235,-4.4265,-4.3907,-4.3907,-4.3907,0,-4.3189,-4.3312,-4.3276,-4.3373,-4.3411,-4.3335,-4.345,-4.3478,-4.3538,-4.3565,-4.3507,-4.3662,-4.3682,-4.3835,-4.3891,-4.3919,-4.3948,-4.3886,-4.413,-4.4153,-4.4175,-4.4251,-4.4282,-4.3916,-4.3915,-4.3914,-4.3913,0,-4.3452,-4.3538,-4.3626,-4.3684,-4.3732,-4.3838,-4.3817,-4.387,-4.3838,-4.3834,-4.3958,-4.398,-4.4049,-4.4083,-4.4054,-4.4231,-4.4198,-4.4136,-4.4033,-4.4217,-4.4288,-4.4317,-4.3929,-4.3926,-4.3923,-4.3921,0,0,-4.3756,-4.3791,-4.3824,-4.3849,-4.3886,-4.3951,-4.4053,-4.412,-4.4166,-4.4209,-4.4293,-4.4399,-4.4341,-4.4377,-4.435,-4.4425,-4.4603,-4.4353,-4.4353,-4.4398,-4.4799,-4.4846,-4.488,-4.4568,-4.4574,-4.4578,-4.4796,0,-4.3974,-4.415,-4.412,-4.4291,-4.4369,-4.4297,-4.4385,-4.4417,-4.4416,-4.4482,-4.448,-4.4556,-4.4474,-4.4495,-4.4566,-4.4567,-4.4683,-4.455,-4.4646,-4.465,-4.4638,-4.4918,-4.4968,-4.5172,-4.4823,-4.4828,-4.4831,0,-4.4252,-4.4305,-4.4484,-4.4506,-4.4538,-4.4619,-4.4676,-4.4741,-4.4775,-4.4768,-4.4808,-4.4766,-4.4867,-4.4762,-4.49,-4.481,-4.4847,-4.4853,-4.486,-4.4868,-4.4752,-4.4933,-4.5237,-4.5267,-4.4875,-4.4872,-4.4868,0,-4.4455,-4.457,-4.4692,-4.4716,-4.4745,-4.4803,-4.4818,-4.4846,-4.4888,-4.4938,-4.4965,-4.5027,-4.5061,-4.5109,-4.5085,-4.5011,-4.5227,-4.5121,-4.5224,-4.5225,-4.5273,-4.527,-4.5587,-4.5298,-4.5297,-4.5296,-4.5296,0,-4.4702,-4.4814,-4.4783,-4.4858,-4.4981,-4.4944,-4.5067,-4.5073,-4.5098,-4.5173,-4.5114,-4.5185,-4.5148,-4.5217,-4.5198,-4.5314,-4.533,-4.5327,-4.5321,-4.5333,-4.5333,-4.5357,-4.5342,-4.5305,-4.5303,-4.5301,-4.53,0,-4.495,-4.4934,-4.5061,-4.5079,-4.5085,-4.5175,-4.5189,-4.5259,-4.5252,-4.5347,-4.5367,-4.5357,-4.5433,-4.5414,-4.5498,-4.5485,-4.5632,-4.5608,-4.562,-4.5615,-4.5719,-4.5709,-4.6061,-4.6105,-4.5788,-4.5791,-4.5794,0,-4.5109,-4.5193,-4.5219,-4.5264,-4.5283,-4.5357,-4.5399,-4.5366,-4.5411,-4.5455,-4.552,-4.5591,-4.5646,-4.5772,-4.5772,-4.5835,-4.5812,-4.5931,-4.5822,-4.583,-4.5813,-4.5809,-4.5816,-4.5953,-4.5957,-4.596,-4.5962,0,-4.5392,-4.5379,-4.5441,-4.5502,-4.5553,-4.5599,-4.5638,-4.5679,-4.5648,-4.5702,-4.578,-4.5823,-4.5907,-4.5979,-4.6037,-4.6051,-4.6002,-4.5997,-4.6024,-4.6037,-4.604,-4.6039,-4.568,-4.5989,-4.5986,-4.5984,-4.5983,-4.5982,-4.5599,-4.567,-4.5699,-4.5771,-4.5797,-4.5835,-4.5901,-4.5902,-4.5966,-4.6032,-4.6008,-4.6097,-4.6126,-4.6199,-4.6221,-4.6289,-4.6244,-4.6284,-4.6294,-4.6304,-4.6317,-4.6029,-4.63,-4.6299,-4.6298,-4.6297,-4.6297,0,-4.5879,-4.5893,-4.5959,-4.6016,-4.6072,-4.602,-4.6061,-4.6111,-4.619,-4.6222,-4.6277,-4.6365,-4.6434,-4.6439,-4.6503,-4.6556,-4.6535,-4.6574,-4.657,-4.6574,-4.6354,-4.6323,-4.659,-4.659,-4.659,-4.659,-4.659,-4.659,-4.6031,-4.6148,-4.6138,-4.6267,-4.6281,-4.6367,-4.6395,-4.6429,-4.6454,-4.6556,-4.6612,-4.6614,-4.6635,-4.67,-4.676,-4.6759,-4.6786,-4.6834,-4.6825,-4.6619,-4.659,-4.6562,-4.6533,-4.684,-4.684,-4.7039,-4.7041,-4.7042]},{"header":{"parameterUnit":"m.s-1","parameterCategory":1,"la1":30.2991,"la2":30.254,"lo1":-89.0895,"lo2":-89.0444,"dy":0.0017,"dx":0.0017,"nx":28,"ny":28,"refTime":"2025-12-04T03:00:00:Z","depth":0,"parameterNumber":3,"parameterNumberName":"V-component_of_WINDS"},"data":[0,0,0,0,0,0,0,0,0,0,0,0,0,0,0,0,0,0,0,0,0,0,0,0,0,0,0,0,0,0,0,0,0,0,0,0,0,0,0,0,0,0,0,0,0,0,0,0,0,0,0,0,0,0,0,0,0,0,-1.4632,-1.4632,0,-1.4647,-1.4647,-1.4647,-1.4647,-1.4646,-1.4646,-1.4646,-1.4661,-1.4661,-1.4662,0,0,0,0,0,0,0,0,0,0,0,0,0,-1.4601,-1.4601,-1.4632,-1.4632,-1.4632,-1.4647,-1.4647,-1.4647,-1.4647,-1.4646,-1.4646,-1.4646,-1.4661,-1.4661,-1.4662,0,0,0,0,0,0,0,0,0,0,0,0,0,-1.4615,-1.4602,-1.4632,-1.4634,-1.4634,-1.4647,-1.4647,-1.4647,-1.4647,-1.4646,-1.4646,-1.4646,-1.466,-1.4661,-1.4662,-1.4674,0,0,-1.4665,-1.4665,0,0,0,0,0,0,0,0,-1.4614,-1.4616,-1.4633,-1.4634,-1.4634,-1.4645,-1.4642,-1.4656,-1.4647,-1.4642,-1.4646,-1.4646,-1.4656,-1.4657,-1.466,-1.4675,-1.4675,-1.4665,-1.4666,-1.4666,-1.4666,0,0,0,0,0,0,0,-1.4613,-1.4615,-1.4638,-1.4633,-1.4634,-1.4633,-1.4635,-1.4644,-1.465,-1.4642,-1.4642,-1.4644,-1.4656,-1.466,-1.4661,-1.4676,-1.4665,-1.4666,-1.4666,-1.4667,-1.4698,-1.4699,0,0,0,0,0,0,-1.4612,-1.4615,-1.4637,-1.4638,-1.4623,-1.4634,-1.4636,-1.4641,-1.465,-1.4651,-1.4644,-1.4644,-1.4658,-1.466,-1.4661,-1.4675,-1.4666,-1.4667,-1.4667,-1.4698,-1.4699,-1.4699,0,0,0,0,0,0,-1.4611,-1.4614,-1.4637,-1.4626,-1.4629,-1.4635,-1.4641,-1.4642,-1.4646,-1.4652,-1.4653,-1.4647,-1.4658,-1.466,-1.4671,-1.4675,-1.4667,-1.4668,-1.4698,-1.4698,-1.4699,-1.4702,0,0,0,0,0,0,-1.461,-1.4614,-1.4619,-1.4627,-1.463,-1.4646,-1.4642,-1.4642,-1.4647,-1.4647,-1.4655,-1.4656,-1.4658,-1.4669,-1.4671,-1.4676,-1.4669,-1.4697,-1.4698,-1.4699,-1.4701,-1.4702,-1.4703,0,0,0,0,0,-1.4609,-1.462,-1.4619,-1.4622,-1.4636,-1.4647,-1.4648,-1.4651,-1.4648,-1.4652,-1.4656,-1.4655,-1.4674,-1.467,-1.4673,-1.4678,-1.4697,-1.4698,-1.4699,-1.4701,-1.4702,-1.4703,0,0,0,0,0,0,-1.4613,-1.4621,-1.462,-1.4633,-1.4639,-1.4646,-1.4653,-1.4652,-1.4659,-1.4659,-1.4661,-1.4663,-1.4673,-1.4677,-1.4672,-1.4689,-1.4685,-1.4686,-1.4686,-1.4688,-1.4688,-1.4687,-1.4669,0,0,0,0,0,-1.4615,-1.4623,-1.4629,-1.464,-1.4643,-1.4647,-1.4652,-1.4653,-1.4659,-1.4662,-1.4666,-1.4672,-1.4679,-1.4683,-1.469,-1.4702,-1.4703,-1.4707,-1.4707,-1.4708,-1.4709,-1.4714,-1.4715,-1.4701,-1.4701,-1.4701,0,0,-1.4619,-1.4625,-1.463,-1.4641,-1.4645,-1.4653,-1.4649,-1.4658,-1.4663,-1.4663,-1.4673,-1.4676,-1.4682,-1.4693,-1.4698,-1.4696,-1.4713,-1.4709,-1.471,-1.471,-1.4715,-1.4716,-1.4717,-1.4702,-1.4702,-1.4701,0,0,-1.4632,-1.4637,-1.4646,-1.465,-1.4657,-1.466,-1.4662,-1.4669,-1.4671,-1.4681,-1.468,-1.4686,-1.4699,-1.4703,-1.4706,-1.4718,-1.4717,-1.472,-1.4725,-1.473,-1.4731,-1.4732,-1.4735,-1.4737,-1.4721,-1.4721,-1.4721,0,-1.4637,-1.4648,-1.465,-1.4658,-1.4663,-1.4662,-1.4671,-1.4675,-1.4684,-1.4686,-1.4684,-1.4699,-1.4703,-1.4714,-1.4717,-1.472,-1.4722,-1.472,-1.4731,-1.4732,-1.4733,-1.4736,-1.4737,-1.4722,-1.4722,-1.4722,-1.4721,0,-1.4653,-1.4661,-1.4667,-1.4675,-1.468,-1.4688,-1.4691,-1.4696,-1.4696,-1.4698,-1.4708,-1.4713,-1.472,-1.4723,-1.4724,-1.4733,-1.4732,-1.473,-1.4727,-1.4734,-1.4737,-1.4739,-1.4722,-1.4722,-1.4722,-1.4722,0,0,-1.4669,-1.4677,-1.4679,-1.4682,-1.4688,-1.4694,-1.4702,-1.4709,-1.4712,-1.4718,-1.4723,-1.4733,-1.4731,-1.4735,-1.4737,-1.4741,-1.4748,-1.4739,-1.4739,-1.474,-1.4758,-1.4759,-1.476,-1.4748,-1.4748,-1.4748,-1.4757,0,-1.4681,-1.4694,-1.4696,-1.4707,-1.4714,-1.4713,-1.4719,-1.4724,-1.4726,-1.4731,-1.4733,-1.474,-1.4738,-1.474,-1.4744,-1.4747,-1.4752,-1.4746,-1.4753,-1.4753,-1.4751,-1.4762,-1.4763,-1.4771,-1.4759,-1.4759,-1.4759,0,-1.4697,-1.4702,-1.4715,-1.4719,-1.4722,-1.4728,-1.4733,-1.4739,-1.4743,-1.4744,-1.4748,-1.4748,-1.4755,-1.4751,-1.476,-1.4756,-1.4758,-1.476,-1.476,-1.4761,-1.4756,-1.4762,-1.4774,-1.4775,-1.4761,-1.4761,-1.4761,0,-1.4705,-1.4716,-1.4724,-1.4727,-1.4733,-1.4736,-1.4739,-1.4743,-1.4747,-1.4751,-1.4753,-1.4759,-1.4762,-1.4766,-1.4767,-1.4764,-1.4776,-1.4772,-1.4776,-1.4776,-1.4779,-1.4778,-1.4791,-1.4781,-1.4781,-1.4781,-1.4781,0,-1.4719,-1.4726,-1.4728,-1.4733,-1.4741,-1.4742,-1.4749,-1.4752,-1.4755,-1.476,-1.476,-1.4764,-1.4766,-1.477,-1.4771,-1.4778,-1.478,-1.478,-1.478,-1.478,-1.478,-1.4781,-1.4781,-1.4781,-1.4781,-1.4781,-1.4781,0,-1.473,-1.4731,-1.474,-1.4744,-1.4746,-1.4751,-1.4754,-1.4759,-1.476,-1.4766,-1.4768,-1.477,-1.4776,-1.4777,-1.4784,-1.4784,-1.4792,-1.4792,-1.479,-1.479,-1.4794,-1.4793,-1.4807,-1.4809,-1.4799,-1.4799,-1.4799,0,-1.4738,-1.4743,-1.4747,-1.475,-1.4753,-1.4758,-1.4762,-1.4762,-1.4766,-1.4771,-1.4774,-1.4779,-1.4783,-1.4792,-1.4794,-1.4798,-1.4798,-1.4803,-1.4799,-1.4798,-1.4797,-1.4797,-1.4797,-1.4803,-1.4803,-1.4804,-1.4804,0,-1.4751,-1.4751,-1.4756,-1.4761,-1.4765,-1.4768,-1.4772,-1.4775,-1.4776,-1.478,-1.4785,-1.4788,-1.4794,-1.4799,-1.4803,-1.4805,-1.4804,-1.4805,-1.4806,-1.4805,-1.4804,-1.4804,-1.4792,-1.4804,-1.4804,-1.4804,-1.4804,-1.4804,-1.476,-1.4764,-1.4768,-1.4773,-1.4775,-1.4778,-1.4782,-1.4784,-1.4788,-1.4793,-1.4793,-1.4799,-1.4802,-1.4808,-1.481,-1.4814,-1.4812,-1.4814,-1.4814,-1.4815,-1.4815,-1.4804,-1.4815,-1.4815,-1.4815,-1.4815,-1.4815,0,-1.4773,-1.4775,-1.4779,-1.4784,-1.4787,-1.4786,-1.479,-1.4793,-1.4797,-1.48,-1.4804,-1.4809,-1.4814,-1.4816,-1.482,-1.4822,-1.4822,-1.4823,-1.4823,-1.4823,-1.4816,-1.4814,-1.4823,-1.4823,-1.4823,-1.4823,-1.4823,-1.4823,-1.478,-1.4786,-1.4787,-1.4794,-1.4796,-1.4801,-1.4803,-1.4806,-1.4808,-1.4814,-1.4817,-1.4818,-1.4821,-1.4825,-1.4828,-1.4829,-1.483,-1.4831,-1.4831,-1.4825,-1.4824,-1.4823,-1.4821,-1.4832,-1.4832,-1.4838,-1.4838,-1.4838]}]]